K9BM Weather Reports


time (UTC)temp
C
wind
direction
speed
KPH
gust
KPH
rain 1hr
cm
rain 24hr
cm
rain mn
cm
humidity
%
barometer
mb
20260905022504 22 273 14.5 19.3 0.00 0.00 0.00 23 1003.4
20260905022004 23 273 14.5 19.3 0.00 0.00 0.00 23 1003.4
20260905021504 23 272 14.5 19.3 0.00 0.00 0.00 23 1003.3
20260905021005 23 272 12.9 19.3 0.00 0.00 0.00 23 1003.4
20260905020004 23 272 11.3 19.3 0.00 0.00 0.00 23 1003.2
20260905015004 23 271 11.3 20.9 0.00 0.00 0.00 22 1003.1
20260905014504 24 274 11.3 20.9 0.00 0.00 0.00 22 1003.0
20260905014004 24 275 14.5 20.9 0.00 0.00 0.00 21 1003.0
20260905013504 25 275 11.3 19.3 0.00 0.00 0.00 21 1002.9
20260905013004 25 288 11.3 20.9 0.00 0.00 0.00 21 1002.9
20260905012504 25 279 14.5 20.9 0.00 0.00 0.00 21 1002.8
20260905012004 25 281 14.5 20.9 0.00 0.00 0.00 20 1002.7
20260905011503 25 290 14.5 20.9 0.00 0.00 0.00 20 1002.8
20260905011004 25 278 11.3 24.1 0.00 0.00 0.00 20 1002.7
20260905005504 26 279 16.1 27.4 0.00 0.00 0.00 20 1002.4
20260905005004 26 287 19.3 27.4 0.00 0.00 0.00 19 1002.4
20260905004504 26 284 20.9 25.7 0.00 0.00 0.00 20 1002.4
20260905003004 26 276 20.9 33.8 0.00 0.00 0.00 19 1002.2
20260905002504 26 282 20.9 33.8 0.00 0.00 0.00 20 1002.2
20260905001504 26 274 22.5 37.0 0.00 0.00 0.00 19 1001.9
20260904235504 27 274 27.4 41.8 0.00 0.00 0.00 20 1001.6
20260904235004 27 283 30.6 40.2 0.00 0.00 0.00 19 1001.7
20260904234504 27 270 27.4 38.6 0.00 0.00 0.00 19 1002.0
20260904234004 27 270 25.7 38.6 0.00 0.00 0.00 19 1002.0
20260904233504 27 255 25.7 37.0 0.00 0.00 0.00 19 1002.2
20260904233004 27 267 25.7 37.0 0.00 0.00 0.00 18 1002.2
20260904232504 27 267 22.5 32.2 0.00 0.00 0.00 18 1002.3
20260904232004 27 237 11.3 37.0 0.00 0.00 0.00 17 1002.2
20260904231504 28 249 22.5 37.0 0.00 0.00 0.00 17 1002.3
20260904231004 28 271 20.9 37.0 0.00 0.00 0.00 18 1002.3
20260904230005 27 247 16.1 32.2 0.00 0.00 0.00 18 1002.4
20260904225504 27 286 16.1 32.2 0.00 0.00 0.00 19 1002.2
20260904225004 28 260 22.5 35.4 0.00 0.00 0.00 18 1002.3
20260904224504 28 238 16.1 37.0 0.00 0.00 0.00 18 1002.2
20260904223504 28 265 16.1 32.2 0.00 0.00 0.00 18 1002.1
20260904223006 28 268 20.9 32.2 0.00 0.00 0.00 18 1002.1
20260904222506 28 244 19.3 32.2 0.00 0.00 0.00 17 1002.1
20260904222006 28 253 17.7 35.4 0.00 0.00 0.00 18 1002.0
20260904221505 28 243 24.1 35.4 0.00 0.00 0.00 18 1002.0
20260904221006 28 260 19.3 33.8 0.00 0.00 0.00 18 1002.0
20260904220006 28 264 20.9 37.0 0.00 0.00 0.00 18 1001.9
20260904215505 28 244 24.1 38.6 0.00 0.00 0.00 17 1001.9
20260904215006 28 241 24.1 41.8 0.00 0.00 0.00 17 1002.0
20260904214005 28 253 20.9 37.0 0.00 0.00 0.00 18 1001.8
20260904213506 28 250 25.7 37.0 0.00 0.00 0.00 18 1001.9
20260904213006 27 234 11.3 33.8 0.00 0.00 0.00 18 1001.8
20260904212506 28 264 22.5 33.8 0.00 0.00 0.00 18 1001.7
20260904211506 28 198 11.3 32.2 0.00 0.00 0.00 17 1001.8
20260904211006 28 228 14.5 32.2 0.00 0.00 0.00 17 1001.9
20260904210005 28 238 17.7 32.2 0.00 0.00 0.00 17 1001.7
20260904205506 28 245 20.9 38.6 0.00 0.00 0.00 18 1001.7
20260904205006 28 244 16.1 38.6 0.00 0.00 0.00 17 1001.6
20260904204506 28 241 14.5 24.1 0.00 0.00 0.00 16 1001.7
20260904204006 28 233 12.9 24.1 0.00 0.00 0.00 16 1001.7
20260904203506 29 163 12.9 32.2 0.00 0.00 0.00 15 1001.5
20260904203006 30 206 16.1 46.7 0.00 0.00 0.00 15 1001.6
20260904202505 30 185 19.3 46.7 0.00 0.00 0.00 15 1001.6
20260904202005 29 176 29.0 46.7 0.00 0.00 0.00 16 1001.5
20260904201506 28 254 19.3 33.8 0.00 0.00 0.00 17 1001.4
20260904201005 28 242 20.9 35.4 0.00 0.00 0.00 17 1001.5
20260904200006 28 247 22.5 35.4 0.00 0.00 0.00 16 1001.5
20260904195506 28 260 20.9 32.2 0.00 0.00 0.00 17 1001.4
20260904195005 27 259 19.3 37.0 0.00 0.00 0.00 17 1001.5
20260904194506 27 252 25.7 37.0 0.00 0.00 0.00 17 1001.5
20260904194006 27 246 20.9 33.8 0.00 0.00 0.00 17 1001.4
20260904193506 27 256 22.5 33.8 0.00 0.00 0.00 17 1001.5
20260904193006 26 265 20.9 32.2 0.00 0.00 0.00 18 1001.6
20260904192506 27 257 22.5 32.2 0.00 0.00 0.00 18 1001.6
20260904192006 27 274 19.3 35.4 0.00 0.00 0.00 18 1001.5
20260904191505 27 270 19.3 35.4 0.00 0.00 0.00 18 1001.5
20260904191006 27 252 16.1 35.4 0.00 0.00 0.00 19 1001.5
20260904190006 26 293 8.0 20.9 0.00 0.00 0.00 20 1001.7
20260904185005 26 270 11.3 20.9 0.00 0.00 0.00 20 1001.7
20260904184006 26 294 1.6 12.9 0.00 0.00 0.00 20 1001.6
20260904183506 25 306 8.0 19.3 0.00 0.00 0.00 22 1001.7
20260904183005 25 305 9.7 19.3 0.00 0.00 0.00 22 1001.8
20260904182006 25 312 11.3 22.5 0.00 0.00 0.00 22 1001.7
20260904181505 25 301 11.3 24.1 0.00 0.00 0.00 23 1001.7
20260904181006 25 305 16.1 24.1 0.00 0.00 0.00 22 1001.7
20260904180005 25 278 9.7 25.7 0.00 0.00 0.00 22 1001.7
20260904175506 25 310 9.7 20.9 0.00 0.00 0.00 23 1001.9
20260904174505 24 303 8.0 19.3 0.00 0.00 0.00 27 1001.9
20260904174006 24 310 9.7 19.3 0.00 0.00 0.00 26 1001.9
20260904173506 24 275 12.9 19.3 0.00 0.00 0.00 25 1001.8
20260904173006 23 285 6.4 16.1 0.00 0.00 0.00 27 1001.8
20260904172006 23 307 9.7 19.3 0.00 0.00 0.00 26 1001.7
20260904171006 23 299 8.0 12.9 0.00 0.00 0.00 24 1001.6
20260904170006 22 10 0.0 4.8 0.00 0.00 0.00 24 1001.5
20260904165505 22 11 1.6 4.8 0.00 0.00 0.00 27 1001.5
20260904165005 21 11 0.0 4.8 0.00 0.00 0.00 28 1001.5
20260904164505 21 11 0.0 8.0 0.00 0.00 0.00 29 1001.5
20260904164005 21 10 4.8 8.0 0.00 0.00 0.00 31 1001.5
20260904163505 21 21 3.2 12.9 0.00 0.00 0.00 31 1001.6
20260904163006 20 329 3.2 12.9 0.00 0.00 0.00 31 1001.6
20260904162505 20 2 4.8 12.9 0.00 0.00 0.00 32 1001.5
20260904162006 20 13 4.8 12.9 0.00 0.00 0.00 33 1001.3
20260904161506 20 15 4.8 12.9 0.00 0.00 0.00 33 1001.3
20260904161005 19 26 4.8 16.1 0.00 0.00 0.00 35 1001.3
20260904160005 19 11 4.8 16.1 0.00 0.00 0.00 36 1001.3
20260904155006 19 0 6.4 16.1 0.00 0.00 0.00 36 1001.2
20260904154506 19 339 8.0 16.1 0.00 0.00 0.00 37 1001.2
20260904154006 19 329 8.0 14.5 0.00 0.00 0.00 37 1001.1
20260904153006 18 320 8.0 19.3 0.00 0.00 0.00 39 1001.2
20260904151505 17 351 4.8 22.5 0.00 0.00 0.00 39 1001.0
20260904151006 17 358 8.0 24.1 0.00 0.00 0.00 40 1001.2
20260904150006 19 306 3.2 19.3 0.00 0.00 0.00 35 1001.1
20260904145505 18 157 11.3 22.5 0.00 0.00 0.00 36 1000.9
20260904145006 18 150 14.5 22.5 0.00 0.00 0.00 37 1000.9
20260904144505 17 166 14.5 20.9 0.00 0.00 0.00 38 1001.1
20260904144006 17 167 11.3 19.3 0.00 0.00 0.00 39 1001.2
20260904143006 16 185 6.4 11.3 0.00 0.00 0.00 41 1001.4
20260904142505 16 185 4.8 11.3 0.00 0.00 0.00 41 1001.3
20260904142006 16 183 8.0 11.3 0.00 0.00 0.00 42 1001.3
20260904141505 16 186 6.4 12.9 0.00 0.00 0.00 43 1001.4
20260904141006 15 172 9.7 12.9 0.00 0.00 0.00 44 1001.3
20260904140005 14 189 3.2 4.8 0.00 0.00 0.00 46 1001.3
20260904135506 13 174 0.0 4.8 0.00 0.00 0.00 48 1001.3
20260904135005 13 174 0.0 4.8 0.00 0.00 0.00 49 1001.2
20260904134505 13 174 1.6 11.3 0.00 0.00 0.00 48 1001.0
20260904134006 13 174 1.6 11.3 0.00 0.00 0.00 49 1001.0
20260904133505 13 191 3.2 11.3 0.00 0.00 0.00 49 1001.0
20260904133006 13 197 4.8 9.7 0.00 0.00 0.00 51 1001.0
20260904132505 12 197 4.8 9.7 0.00 0.00 0.00 50 1001.0
20260904132006 12 197 8.0 11.3 0.00 0.00 0.00 50 1001.0
20260904131505 12 198 8.0 11.3 0.00 0.00 0.00 50 1000.9
20260904131005 12 201 3.2 9.7 0.00 0.00 0.00 51 1000.7
20260904130006 12 235 1.6 8.0 0.00 0.00 0.00 50 1000.7
20260904125505 12 235 4.8 8.0 0.00 0.00 0.00 50 1000.5
20260904125006 12 242 3.2 11.3 0.00 0.00 0.00 50 1000.4
20260904124005 12 245 9.7 12.9 0.00 0.00 0.00 49 1000.6
20260904123506 12 223 4.8 8.0 0.00 0.00 0.00 47 1000.4
20260904123006 13 142 0.0 0.0 0.00 0.00 0.00 46 1000.3
20260904122506 13 137 0.0 0.0 0.00 0.00 0.00 46 1000.3
20260904122006 13 95 0.0 0.0 0.00 0.00 0.00 44 1000.3
20260904121505 13 95 0.0 0.0 0.00 0.00 0.00 44 1000.4
20260904121006 13 94 0.0 0.0 0.00 0.00 0.00 44 1000.4
20260904120005 13 77 0.0 0.0 0.00 0.00 0.00 43 1000.3
20260904115505 14 77 0.0 0.0 0.00 0.00 0.00 42 1000.4
20260904115005 14 76 0.0 0.0 0.00 0.00 0.00 41 1000.4
20260904114505 15 76 0.0 0.0 0.00 0.00 0.00 40 1000.5
20260904113506 15 75 0.0 0.0 0.00 0.00 0.00 39 1000.2
20260904112505 15 75 0.0 0.0 0.00 0.00 0.00 39 1000.1
20260904111505 15 75 0.0 8.0 0.00 0.00 0.00 39 1000.1
20260904111005 16 76 1.6 8.0 0.00 0.00 0.00 39 1000.1
20260904110005 16 82 4.8 8.0 0.00 0.00 0.00 38 1000.1
20260904105505 16 80 4.8 9.7 0.00 0.00 0.00 38 1000.1
20260904105005 16 75 4.8 9.7 0.00 0.00 0.00 38 1000.2
20260904104505 16 57 6.4 9.7 0.00 0.00 0.00 39 1000.2
20260904104006 15 63 3.2 8.0 0.00 0.00 0.00 40 1000.2
20260904103005 15 67 3.2 8.0 0.00 0.00 0.00 41 1000.3
20260904102505 14 55 4.8 8.0 0.00 0.00 0.00 42 1000.3
20260904102005 15 39 4.8 8.0 0.00 0.00 0.00 42 1000.3
20260904101506 15 32 4.8 8.0 0.00 0.00 0.00 42 1000.4
20260904101005 15 44 4.8 8.0 0.00 0.00 0.00 41 1000.5
20260904100005 15 56 3.2 4.8 0.00 0.00 0.00 40 1000.4
20260904095005 16 58 3.2 8.0 0.00 0.00 0.00 39 1000.4
20260904094505 16 59 4.8 9.7 0.00 0.00 0.00 39 1000.4
20260904094005 16 54 8.0 11.3 0.00 0.00 0.00 38 1000.4
20260904093505 16 57 4.8 12.9 0.00 0.00 0.00 38 1000.4
20260904093006 16 53 8.0 14.5 0.00 0.00 0.00 38 1000.4
20260904091505 16 71 3.2 12.9 0.00 0.00 0.00 38 1000.7
20260904091005 16 63 4.8 12.9 0.00 0.00 0.00 38 1000.7
20260904090005 16 81 8.0 14.5 0.00 0.00 0.00 38 1000.7
20260904085505 16 69 9.7 14.5 0.00 0.00 0.00 38 1000.6
20260904085005 16 69 4.8 14.5 0.00 0.00 0.00 39 1000.8
20260904084505 16 79 6.4 9.7 0.00 0.00 0.00 40 1001.0
20260904084005 16 43 1.6 11.3 0.00 0.00 0.00 40 1001.1
20260904083506 16 41 8.0 11.3 0.00 0.00 0.00 39 1001.2
20260904082006 17 40 4.8 8.0 0.00 0.00 0.00 38 1001.4
20260904081505 17 30 4.8 8.0 0.00 0.00 0.00 37 1001.5
20260904081005 17 93 3.2 11.3 0.00 0.00 0.00 34 1001.5
20260904080005 17 108 4.8 9.7 0.00 0.00 0.00 34 1001.4
20260904075505 17 116 4.8 9.7 0.00 0.00 0.00 33 1001.5
20260904075005 17 116 6.4 11.3 0.00 0.00 0.00 33 1001.6
20260904074505 18 116 8.0 12.9 0.00 0.00 0.00 33 1001.6
20260904073506 18 117 11.3 14.5 0.00 0.00 0.00 32 1001.6
20260904073006 18 115 9.7 16.1 0.00 0.00 0.00 32 1001.5
20260904072006 18 115 12.9 16.1 0.00 0.00 0.00 32 1001.6
20260904071506 18 111 11.3 19.3 0.00 0.00 0.00 32 1001.7
20260904071006 18 109 14.5 19.3 0.00 0.00 0.00 32 1001.6
20260904070005 18 98 12.9 19.3 0.00 0.00 0.00 32 1001.7
20260904065505 18 103 14.5 20.9 0.00 0.00 0.00 32 1001.7
20260904065006 18 104 14.5 22.5 0.00 0.00 0.00 32 1001.7
20260904064505 18 97 16.1 24.1 0.00 0.00 0.00 32 1001.7
20260904064005 18 98 19.3 24.1 0.00 0.00 0.00 32 1001.7
20260904063506 18 101 19.3 24.1 0.00 0.00 0.00 32 1001.8
20260904063005 19 102 16.1 27.4 0.00 0.00 0.00 32 1001.6
20260904062505 19 111 20.9 27.4 0.00 0.00 0.00 32 1001.7
20260904062005 18 101 17.7 24.1 0.00 0.00 0.00 32 1001.6
20260904061505 18 100 16.1 20.9 0.00 0.00 0.00 32 1001.5
20260904061005 18 94 16.1 22.5 0.00 0.00 0.00 32 1001.7
20260904055005 18 100 9.7 11.3 0.00 0.00 0.00 35 1001.8
20260904054505 18 159 8.0 8.0 0.00 0.00 0.00 33 1001.9
20260904054005 18 160 3.2 11.3 0.00 0.00 0.00 34 1002.0
20260904053505 18 160 3.2 11.3 0.00 0.00 0.00 34 1002.1
20260904053006 18 159 6.4 11.3 0.00 0.00 0.00 34 1002.2
20260904052505 18 97 1.6 4.8 0.00 0.00 0.00 34 1002.1
20260904052006 18 97 4.8 9.7 0.00 0.00 0.00 33 1002.1
20260904051505 18 97 4.8 11.3 0.00 0.00 0.00 33 1002.1
20260904051005 19 108 4.8 16.1 0.00 0.00 0.00 32 1002.2
20260904045505 18 118 12.9 19.3 0.00 0.00 0.00 32 1002.3
20260904045005 19 120 12.9 19.3 0.00 0.00 0.00 32 1002.4
20260904044505 19 195 8.0 11.3 0.00 0.00 0.00 32 1002.2
20260904044005 19 211 4.8 9.7 0.00 0.00 0.00 31 1002.2
20260904043005 19 240 8.0 12.9 0.00 0.00 0.00 31 1002.2
20260904042005 19 192 8.0 9.7 0.00 0.00 0.00 32 1002.5
20260904041505 19 206 4.8 8.0 0.00 0.00 0.00 31 1002.4
20260904040006 20 224 4.8 8.0 0.00 0.00 0.00 30 1002.3
20260904035504 20 233 4.8 9.7 0.00 0.00 0.00 29 1002.3
20260904035006 20 235 8.0 9.7 0.00 0.00 0.00 28 1002.4
20260904033505 20 222 4.8 8.0 0.00 0.00 0.00 29 1002.7
20260904033006 20 216 4.8 8.0 0.00 0.00 0.00 29 1002.7
20260904032505 20 207 4.8 4.8 0.00 0.00 0.00 28 1002.7
20260904031505 20 200 3.2 9.7 0.00 0.00 0.00 28 1002.7
20260904031005 20 197 3.2 8.0 0.00 0.00 0.00 28 1002.7
20260904030005 20 197 3.2 4.8 0.00 0.00 0.00 28 1002.8
20260904025505 20 197 4.8 9.7 0.00 0.00 0.00 28 1002.8
20260904025005 20 195 6.4 9.7 0.00 0.00 0.00 28 1002.8
20260904024505 21 187 8.0 9.7 0.00 0.00 0.00 28 1002.8
20260904023005 21 197 8.0 11.3 0.00 0.00 0.00 27 1002.7